Location: Dittelspoint
(48.7198°N, 10.7214°E)
Time: 02:00:40
(UTC+00:00)

Iridium 2 - Pass Details

Date: 09 April 2020
Orbit: 502 x 518 km, 85.5° (Epoch: 03 June)

Event Time Altitude Azimuth Distance (km) Brightness Sun altitude
Exits shadow 19:33:09 26° 144° (SE) 1,043 4.7 -14.9°
Maximum altitude 19:34:50 43° 89° (E) 738 4.1 -15.2°
Drops below altitude 10° 19:38:29 10° 18° (NNE) 1,760 6.6 -15.7°
Sets 19:40:41 0° 11° (N) 2,654 7.6 -16.0°
